Вернуться в каталог

DELTA 1 DEB

АктивенPO
NORAD 7893·DEBRIS·🇺🇸 United States

Запущен Jul 23, 1972 с Vandenberg Space Force Base

Loading…

Ближайшие Пролёты (ближайшие 24 часа)

TLE

СвежийSource: Space-Track

Эпоха: Sep 14, 2026, 00:39 UTC

1 07893U 72058BK  26257.02758389  .00000314  00000-0  19056-3 0  9995
2 07893  97.7744 288.1264 0394079 116.9697 247.2274 13.78296281544096

Отслеживайте DELTA 1 DEB в реальном времени с AllMySat

Download on the App Store